Location: ?????????
(38.5999°N, 22.7695°E)
Time: 10:05:32
(UTC+00:00)

Cosmos 2154 Rocket - Pass Details

Date: 16 August 2024
Orbit: 964 x 997 km, 82.9° (Epoch: 07 September)

Event Time Altitude Azimuth Distance (km) Brightness Sun altitude
Rises 01:32:21 0° 9° (N) 3,670 7.8 -23.1°
Reaches altitude 10° 01:35:48 10° 28° (NNE) 2,714 7.3 -22.6°
Maximum altitude 01:39:52 18° 69° (ENE) 2,185 6.7 -22.0°
Drops below altitude 10° 01:43:54 10° 111° (ESE) 2,699 6.7 -21.4°
Sets 01:47:18 0° 130° (SE) 3,640 7.1 -20.9°
